Weather in Smirnovo

Russia / Kurgan Oblast     56°18′20″N   63°12′04″E
temp.,
°C
wind,
m/s
gust,
m/s
humid.,
%
clouds,
%
prec.,
mm/h
press.,
hPa
HPBL,
m
19 april, mon
mon1923:00−2ne59400 0.0 1031998
02:00−3ne48450 0.0 10321075
05:00−4ne36490 0.0 1034732
08:00−3ne46390 0.0 10351051
11:000nne463486 0.0 10351811
14:00+2nne4631100 0.0 10342186
17:00+3n4630100 0.0 10332207
20:00+1nne22425 0.0 103316
20 april, tue
tue2023:00−1ene35475 0.0 1034117
02:00−2e22454 0.0 103421
05:00−2w11442 0.0 103410
08:000w233518 0.0 1034351
11:00+4w343255 0.0 10321187
14:00+7w57305 0.0 10301759
17:00+9wnw67280 0.0 10281763
20:00+6wnw34485 0.0 102858
21 april, wed
wed2123:00+4wnw49610 0.0 1028160
02:00+2nw48710 0.0 1029134
05:00+1nw36770 0.0 1030100
08:00+4nnw35660 0.0 1031242
11:00+9nnw34525 0.0 1031959
14:00+11n344320 0.0 10311656
17:00+12n224022 0.0 10311703
20:00+9ese475861 0.0 1033209
22 april, thu
thu2223:00+6ese486920 0.0 1034205
02:00+4sse38745 0.0 1035171
05:00+3sse377714 0.0 1036129
08:00+6sse5866100 0.0 1036322
11:00+11s674876 0.0 10361056
14:00+14s6737100 0.0 10351807
17:00+14s6836100 0.0 10341799
20:00+11sse4950100 0.0 1034187
23 april, fri
fri2323:00+9sse51160100 0.0 1034262
02:00+8sse41068100 0.0 1034207
05:00+6sse4976100 0.0 1034166
08:00+9s5962100 0.0 1034347
11:00+14ssw6841100 0.0 10331437
14:00+14ssw6840100 0.0 10321718
17:00+14s6840100 0.0 10312052
20:00+12sse594596 0.0 1031335